"Sample Date","Sample Time","Sample Value","Units","Flow Rate","Laser Status","Micron Size 0","Counts/Channel 0","Micron Size 1","Counts/Channel 1","Micron Size 2","Counts/Channel 2","Micron Size 3","Counts/Channel 3","Micron Size 4","Counts/Channel 4","Micron Size 5","Counts/Channel 5","Micron Size 6","Counts/Channel 6","Micron Size 7","Counts/Channel 7","Micron Size 8","Counts/Channel 8","Micron Size 9","Counts/Channel 9","Micron Size 10","Counts/Channel 10","Micron Size 11","Counts/Channel 11","Micron Size 12","Counts/Channel 12","Micron Size 13","Counts/Channel 13","Micron Size 14","Counts/Channel 14","Micron Size 15","Counts/Channel 15","Micron Size 16","Counts/Channel 16","Micron Size 17","Counts/Channel 17","Micron Size 18","Counts/Channel 18","Micron Size 19","Counts/Channel 19","Micron Size 20","Counts/Channel 20","Micron Size 21","Counts/Channel 21","Micron Size 22","Counts/Channel 22","Micron Size 23","Counts/Channel 23","Micron Size 24","Counts/Channel 24","Micron Size 25","Counts/Channel 25","Micron Size 26","Counts/Channel 26","Micron Size 27","Counts/Channel 27","Micron Size 28","Counts/Channel 28","Micron Size 29","Counts/Channel 29","Micron Size 30","Counts/Channel 30","Micron Size 31","Counts/Channel 31"
"03/02/08","12:00:04",18216.000,"cc",28360.770,1,0.100,16297.000,0.200,795.000,0.300,465.000,0.500,477.000,1.000,182.000,5.000,0
"03/02/08","12:00:10",18017.000,"cc",28351.664,1,0.100,16211.000,0.200,782.000,0.300,369.000,0.500,484.000,1.000,171.000,5.000,0
"03/02/08","12:00:16",18154.000,"cc",28281.133,1,0.100,16356.000,0.200,791.000,0.300,407.000,0.500,428.000,1.000,172.000,5.000,0
"03/02/08","12:00:22",17992.000,"cc",28278.688,1,0.100,16109.000,0.200,789.000,0.300,474.000,0.500,428.000,1.000,192.000,5.000,0
"03/02/08","12:00:28",18215.000,"cc",28349.176,1,0.100,16283.000,0.200,837.000,0.300,453.000,0.500,473.000,1.000,169.000,5.000,0
"03/02/08","12:00:34",18162.000,"cc",28322.779,1,0.100,16399.000,0.200,755.000,0.300,397.000,0.500,425.000,1.000,186.000,5.000,0
"03/02/08","12:00:40",18123.000,"cc",28340.795,1,0.100,16251.000,0.200,777.000,0.300,429.000,0.500,454.000,1.000,212.000,5.000,0
"03/02/08","12:00:46",18120.000,"cc",28276.074,1,0.100,16322.000,0.200,794.000,0.300,411.000,0.500,420.000,1.000,173.000,5.000,0
"03/02/08","12:00:52",18104.000,"cc",28312.623,1,0.100,16195.000,0.200,814.000,0.300,443.000,0.500,456.000,1.000,196.000,5.000,0
"03/02/08","12:00:58",18242.000,"cc",28315.938,1,0.100,16385.000,0.200,831.000,0.300,402.000,0.500,432.000,1.000,192.000,5.000,0
"03/02/08","12:01:04",18300.000,"cc",28342.979,1,0.100,16391.000,0.200,847.000,0.300,416.000,0.500,478.000,1.000,168.000,5.000,0
"03/02/08","12:01:10",18112.000,"cc",28324.990,1,0.100,16200.000,0.200,809.000,0.300,436.000,0.500,475.000,1.000,192.000,5.000,0
"03/02/08","12:01:16",18391.000,"cc",28228.803,1,0.100,16510.000,0.200,824.000,0.300,430.000,0.500,456.000,1.000,171.000,5.000,0
"03/02/08","12:01:22",18224.000,"cc",28342.732,1,0.100,16395.000,0.200,760.000,0.300,412.000,0.500,461.000,1.000,196.000,5.000,0
"03/02/08","12:01:28",18229.000,"cc",28336.986,1,0.100,16368.000,0.200,822.000,0.300,426.000,0.500,441.000,1.000,172.000,5.000,0
"03/02/08","12:01:34",18474.000,"cc",28311.246,1,0.100,16522.000,0.200,834.000,0.300,436.000,0.500,485.000,1.000,197.000,5.000,0
"03/02/08","12:01:40",17929.000,"cc",28357.963,1,0.100,16027.000,0.200,808.000,0.300,429.000,0.500,460.000,1.000,205.000,5.000,0
"03/02/08","12:01:46",18529.000,"cc",28286.793,1,0.100,16634.000,0.200,778.000,0.300,413.000,0.500,492.000,1.000,212.000,5.000,0
"03/02/08","12:01:52",18291.000,"cc",28379.129,1,0.100,16484.000,0.200,779.000,0.300,417.000,0.500,441.000,1.000,170.000,5.000,0
"03/02/08","12:01:58",18253.000,"cc",28329.217,1,0.100,16433.000,0.200,798.000,0.300,400.000,0.500,429.000,1.000,193.000,5.000,0
"03/02/08","12:02:04",18243.000,"cc",28258.531,1,0.100,16324.000,0.200,821.000,0.300,449.000,0.500,464.000,1.000,185.000,5.000,0
"03/02/08","12:02:10",18223.000,"cc",28358.852,1,0.100,16328.000,0.200,797.000,0.300,434.000,0.500,453.000,1.000,211.000,5.000,0
"03/02/08","12:02:16",18357.000,"cc",28382.627,1,0.100,16462.000,0.200,832.000,0.300,419.000,0.500,455.000,1.000,189.000,5.000,0
"03/02/08","12:02:22",18291.000,"cc",28328.676,1,0.100,16437.000,0.200,760.000,0.300,435.000,0.500,486.000,1.000,173.000,5.000,0
"03/02/08","12:02:28",18100.000,"cc",28201.201,1,0.100,16248.000,0.200,791.000,0.300,427.000,0.500,477.000,1.000,157.000,5.000,0
"03/02/08","12:02:34",18197.000,"cc",28339.639,1,0.100,16346.000,0.200,801.000,0.300,419.000,0.500,455.000,1.000,176.000,5.000,0
"03/02/08","12:02:40",18363.000,"cc",28298.248,1,0.100,16441.000,0.200,777.000,0.300,442.000,0.500,490.000,1.000,213.000,5.000,0
"03/02/08","12:02:46",18209.000,"cc",28323.406,1,0.100,16310.000,0.200,808.000,0.300,416.000,0.500,502.000,1.000,173.000,5.000,0
"03/02/08","12:02:52",18239.000,"cc",28319.281,1,0.100,16386.000,0.200,786.000,0.300,396.000,0.500,463.000,1.000,208.000,5.000,0
"03/02/08","12:02:58",18353.000,"cc",28325.658,1,0.100,16470.000,0.200,784.000,0.300,418.000,0.500,494.000,1.000,187.000,5.000,0
"03/02/08","12:03:04",18279.000,"cc",28350.668,1,0.100,16371.000,0.200,852.000,0.300,406.000,0.500,451.000,1.000,199.000,5.000,0
"03/02/08","12:03:10",18138.000,"cc",28348.555,1,0.100,16318.000,0.200,749.000,0.300,407.000,0.500,470.000,1.000,194.000,5.000,0
"03/02/08","12:03:16",18370.000,"cc",28269.066,1,0.100,16473.000,0.200,834.000,0.300,454.000,0.500,429.000,1.000,180.000,5.000,0
"03/02/08","12:03:22",18182.000,"cc",28280.916,1,0.100,16355.000,0.200,779.000,0.300,414.000,0.500,454.000,1.000,180.000,5.000,0
"03/02/08","12:03:28",18229.000,"cc",28367.633,1,0.100,16368.000,0.200,776.000,0.300,415.000,0.500,466.000,1.000,204.000,5.000,0
"03/02/08","12:03:34",18188.000,"cc",28308.715,1,0.100,16283.000,0.200,817.000,0.300,442.000,0.500,462.000,1.000,184.000,5.000,0
"03/02/08","12:03:40",18351.000,"cc",28309.604,1,0.100,16455.000,0.200,849.000,0.300,401.000,0.500,450.000,1.000,196.000,5.000,0
"03/02/08","12:03:46",17940.000,"cc",28304.463,1,0.100,16090.000,0.200,786.000,0.300,439.000,0.500,453.000,1.000,172.000,5.000,0
"03/02/08","12:03:52",18402.000,"cc",28272.539,1,0.100,16410.000,0.200,848.000,0.300,477.000,0.500,479.000,1.000,188.000,5.000,0
"03/02/08","12:03:58",18352.000,"cc",28348.295,1,0.100,16562.000,0.200,759.000,0.300,407.000,0.500,436.000,1.000,188.000,5.000,0
"03/02/08","12:04:04",18165.000,"cc",28355.123,1,0.100,16302.000,0.200,808.000,0.300,433.000,0.500,452.000,1.000,170.000,5.000,0
"03/02/08","12:04:10",18377.000,"cc",28272.272,1,0.100,16459.000,0.200,833.000,0.300,442.000,0.500,454.000,1.000,189.000,5.000,0
"03/02/08","12:04:16",18542.000,"cc",28334.043,1,0.100,16680.000,0.200,815.000,0.300,426.000,0.500,419.000,1.000,202.000,5.000,0
"03/02/08","12:04:22",18316.000,"cc",28309.301,1,0.100,16338.000,0.200,850.000,0.300,453.000,0.500,478.000,1.000,197.000,5.000,0
"03/02/08","12:04:28",18403.000,"cc",28327.477,1,0.100,16501.000,0.200,822.000,0.300,425.000,0.500,447.000,1.000,208.000,5.000,0
"03/02/08","12:04:34",18301.000,"cc",28291.244,1,0.100,16512.000,0.200,731.000,0.300,422.000,0.500,450.000,1.000,186.000,5.000,0
"03/02/08","12:04:40",18162.000,"cc",28316.572,1,0.100,16352.000,0.200,763.000,0.300,438.000,0.500,426.000,1.000,183.000,5.000,0
"03/02/08","12:04:46",18314.000,"cc",28328.846,1,0.100,16364.000,0.200,841.000,0.300,426.000,0.500,492.000,1.000,191.000,5.000,0
"03/02/08","12:04:52",18185.000,"cc",28303.660,1,0.100,16269.000,0.200,815.000,0.300,444.000,0.500,461.000,1.000,196.000,5.000,0
"03/02/08","12:04:58",18467.000,"cc",28265.938,1,0.100,16570.000,0.200,799.000,0.300,413.000,0.500,496.000,1.000,189.000,5.000,0
"03/02/08","12:05:04",18348.000,"cc",28324.877,1,0.100,16496.000,0.200,795.000,0.300,428.000,0.500,439.000,1.000,190.000,5.000,0
"03/02/08","12:05:10",18153.000,"cc",28335.848,1,0.100,16298.000,0.200,802.000,0.300,465.000,0.500,428.000,1.000,160.000,5.000,0
"03/02/08","12:05:16",18065.000,"cc",28371.676,1,0.100,16254.000,0.200,789.000,0.300,426.000,0.500,421.000,1.000,175.000,5.000,0
"03/02/08","12:05:22",18404.000,"cc",28291.326,1,0.100,16491.000,0.200,826.000,0.300,429.000,0.500,453.000,1.000,205.000,5.000,0
"03/02/08","12:05:28",18228.000,"cc",28229.977,1,0.100,16273.000,0.200,811.000,0.300,450.000,0.500,520.000,1.000,174.000,5.000,0
"03/02/08","12:05:34",18502.000,"cc",28411.285,1,0.100,16534.000,0.200,838.000,0.300,474.000,0.500,466.000,1.000,190.000,5.000,0
"03/02/08","12:05:40",18247.000,"cc",28316.500,1,0.100,16358.000,0.200,790.000,0.300,440.000,0.500,460.000,1.000,199.000,5.000,0
"03/02/08","12:05:46",18465.000,"cc",28285.670,1,0.100,16594.000,0.200,819.000,0.300,420.000,0.500,441.000,1.000,191.000,5.000,0
"03/02/08","12:05:52",18331.000,"cc",28285.600,1,0.100,16401.000,0.200,826.000,0.300,466.000,0.500,438.000,1.000,200.000,5.000,0
"03/02/08","12:05:58",18484.000,"cc",28351.221,1,0.100,16650.000,0.200,788.000,0.300,433.000,0.500,433.000,1.000,180.000,5.000,0
"03/02/08","12:06:04",18443.000,"cc",28291.082,1,0.100,16561.000,0.200,818.000,0.300,448.000,0.500,406.000,1.000,210.000,5.000,0
"03/02/08","12:06:10",18339.000,"cc",28321.801,1,0.100,16464.000,0.200,779.000,0.300,442.000,0.500,455.000,1.000,199.000,5.000,0
"03/02/08","12:06:16",18393.000,"cc",28307.973,1,0.100,16412.000,0.200,864.000,0.300,443.000,0.500,489.000,1.000,185.000,5.000,0
"03/02/08","12:06:22",18472.000,"cc",28319.662,1,0.100,16562.000,0.200,804.000,0.300,470.000,0.500,457.000,1.000,179.000,5.000,0
"03/02/08","12:06:28",18548.000,"cc",28354.197,1,0.100,16712.000,0.200,781.000,0.300,421.000,0.500,450.000,1.000,184.000,5.000,0
"03/02/08","12:06:34",18345.000,"cc",28328.367,1,0.100,16451.000,0.200,757.000,0.300,459.000,0.500,481.000,1.000,196.000,5.000,1.000
"03/02/08","12:06:40",18540.000,"cc",28343.922,1,0.100,16585.000,0.200,845.000,0.300,447.000,0.500,472.000,1.000,191.000,5.000,0
"03/02/08","12:06:46",18727.000,"cc",28337.510,1,0.100,16732.000,0.200,847.000,0.300,434.000,0.500,514.000,1.000,200.000,5.000,0
"03/02/08","12:06:52",18161.000,"cc",28239.809,1,0.100,16342.000,0.200,791.000,0.300,423.000,0.500,436.000,1.000,169.000,5.000,0
"03/02/08","12:06:58",18629.000,"cc",28311.367,1,0.100,16658.000,0.200,867.000,0.300,417.000,0.500,500.000,1.000,187.000,5.000,0
"03/02/08","12:07:04",18306.000,"cc",28319.359,1,0.100,16428.000,0.200,787.000,0.300,428.000,0.500,521.000,1.000,142.000,5.000,0
"03/02/08","12:07:10",18683.000,"cc",28362.566,1,0.100,16764.000,0.200,830.000,0.300,439.000,0.500,463.000,1.000,187.000,5.000,0
"03/02/08","12:07:16",18575.000,"cc",28319.432,1,0.100,16683.000,0.200,811.000,0.300,473.000,0.500,440.000,1.000,168.000,5.000,0
"03/02/08","12:07:22",18297.000,"cc",28272.518,1,0.100,16408.000,0.200,798.000,0.300,457.000,0.500,460.000,1.000,174.000,5.000,0
"03/02/08","12:07:28",18552.000,"cc",28278.311,1,0.100,16678.000,0.200,811.000,0.300,417.000,0.500,457.000,1.000,189.000,5.000,0
"03/02/08","12:07:34",18487.000,"cc",28330.307,1,0.100,16587.000,0.200,760.000,0.300,445.000,0.500,514.000,1.000,181.000,5.000,0
"03/02/08","12:07:40",18455.000,"cc",28345.482,1,0.100,16546.000,0.200,800.000,0.300,451.000,0.500,482.000,1.000,176.000,5.000,0
"03/02/08","12:07:46",18590.000,"cc",28327.436,1,0.100,16640.000,0.200,770.000,0.300,481.000,0.500,515.000,1.000,184.000,5.000,0
"03/02/08","12:07:52",18414.000,"cc",28318.627,1,0.100,16463.000,0.200,853.000,0.300,434.000,0.500,464.000,1.000,200.000,5.000,0
"03/02/08","12:07:58",18615.000,"cc",28324.272,1,0.100,16727.000,0.200,805.000,0.300,413.000,0.500,474.000,1.000,196.000,5.000,0
"03/02/08","12:08:04",18593.000,"cc",28331.549,1,0.100,16648.000,0.200,804.000,0.300,424.000,0.500,518.000,1.000,199.000,5.000,0
"03/02/08","12:08:10",18542.000,"cc",28252.672,1,0.100,16601.000,0.200,878.000,0.300,412.000,0.500,491.000,1.000,160.000,5.000,0
"03/02/08","12:08:16",18641.000,"cc",28294.184,1,0.100,16729.000,0.200,783.000,0.300,456.000,0.500,472.000,1.000,201.000,5.000,0
"03/02/08","12:08:22",18376.000,"cc",28370.395,1,0.100,16467.000,0.200,800.000,0.300,416.000,0.500,492.000,1.000,201.000,5.000,0
"03/02/08","12:08:28",18398.000,"cc",28307.719,1,0.100,16522.000,0.200,815.000,0.300,430.000,0.500,443.000,1.000,188.000,5.000,0
"03/02/08","12:08:34",18513.000,"cc",28308.115,1,0.100,16606.000,0.200,800.000,0.300,447.000,0.500,463.000,1.000,197.000,5.000,0
"03/02/08","12:08:40",18320.000,"cc",28367.098,1,0.100,16463.000,0.200,786.000,0.300,439.000,0.500,452.000,1.000,180.000,5.000,0
"03/02/08","12:08:46",18697.000,"cc",28341.109,1,0.100,16765.000,0.200,841.000,0.300,447.000,0.500,457.000,1.000,187.000,5.000,0
"03/02/08","12:08:52",18657.000,"cc",28321.680,1,0.100,16777.000,0.200,796.000,0.300,430.000,0.500,464.000,1.000,190.000,5.000,0
"03/02/08","12:08:58",18533.000,"cc",28316.117,1,0.100,16591.000,0.200,850.000,0.300,451.000,0.500,428.000,1.000,213.000,5.000,0
"03/02/08","12:09:04",18749.000,"cc",28282.022,1,0.100,16733.000,0.200,850.000,0.300,485.000,0.500,480.000,1.000,201.000,5.000,0
"03/02/08","12:09:10",18657.000,"cc",28281.842,1,0.100,16806.000,0.200,757.000,0.300,457.000,0.500,464.000,1.000,173.000,5.000,0
"03/02/08","12:09:16",18541.000,"cc",28336.559,1,0.100,16616.000,0.200,801.000,0.300,439.000,0.500,490.000,1.000,195.000,5.000,0
"03/02/08","12:09:22",18482.000,"cc",28287.022,1,0.100,16616.000,0.200,792.000,0.300,434.000,0.500,451.000,1.000,189.000,5.000,0
"03/02/08","12:09:28",18521.000,"cc",28323.045,1,0.100,16621.000,0.200,822.000,0.300,403.000,0.500,488.000,1.000,187.000,5.000,0
"03/02/08","12:09:34",18706.000,"cc",28276.098,1,0.100,16779.000,0.200,842.000,0.300,475.000,0.500,431.000,1.000,179.000,5.000,0
"03/02/08","12:09:40",18618.000,"cc",28341.758,1,0.100,16583.000,0.200,856.000,0.300,500.000,0.500,460.000,1.000,219.000,5.000,0
"03/02/08","12:09:46",18380.000,"cc",28342.156,1,0.100,16409.000,0.200,873.000,0.300,423.000,0.500,493.000,1.000,182.000,5.000,0
"03/02/08","12:09:52",18498.000,"cc",28336.215,1,0.100,16661.000,0.200,786.000,0.300,413.000,0.500,482.000,1.000,156.000,5.000,0
"03/02/08","12:09:58",18730.000,"cc",28286.625,1,0.100,16766.000,0.200,844.000,0.300,463.000,0.500,448.000,1.000,209.000,5.000,0
"03/02/08","12:10:04",18869.000,"cc",28291.781,1,0.100,16947.000,0.200,819.000,0.300,447.000,0.500,494.000,1.000,162.000,5.000,0
"03/02/08","12:10:10",18700.000,"cc",28336.090,1,0.100,16760.000,0.200,855.000,0.300,426.000,0.500,448.000,1.000,211.000,5.000,0
"03/02/08","12:10:16",18691.000,"cc",28362.996,1,0.100,16746.000,0.200,857.000,0.300,422.000,0.500,462.000,1.000,204.000,5.000,0
"03/02/08","12:10:22",18651.000,"cc",28342.563,1,0.100,16678.000,0.200,874.000,0.300,448.000,0.500,446.000,1.000,205.000,5.000,0
"03/02/08","12:10:28",18734.000,"cc",28332.842,1,0.100,16747.000,0.200,873.000,0.300,422.000,0.500,499.000,1.000,193.000,5.000,0
"03/02/08","12:10:34",18584.000,"cc",28259.607,1,0.100,16713.000,0.200,828.000,0.300,433.000,0.500,437.000,1.000,173.000,5.000,0
"03/02/08","12:10:40",18411.000,"cc",28290.707,1,0.100,16485.000,0.200,762.000,0.300,480.000,0.500,501.000,1.000,183.000,5.000,0
"03/02/08","12:10:46",18466.000,"cc",28349.188,1,0.100,16540.000,0.200,848.000,0.300,432.000,0.500,467.000,1.000,179.000,5.000,0
"03/02/08","12:10:52",18664.000,"cc",28336.820,1,0.100,16830.000,0.200,758.000,0.300,452.000,0.500,443.000,1.000,181.000,5.000,0
"03/02/08","12:10:58",18669.000,"cc",28354.486,1,0.100,16738.000,0.200,839.000,0.300,456.000,0.500,461.000,1.000,175.000,5.000,0
"03/02/08","12:11:04",18693.000,"cc",28302.387,1,0.100,16792.000,0.200,834.000,0.300,430.000,0.500,434.000,1.000,203.000,5.000,0
"03/02/08","12:11:10",18622.000,"cc",28289.705,1,0.100,16700.000,0.200,825.000,0.300,431.000,0.500,470.000,1.000,196.000,5.000,0
"03/02/08","12:11:16",18469.000,"cc",28355.639,1,0.100,16656.000,0.200,784.000,0.300,413.000,0.500,445.000,1.000,171.000,5.000,0
"03/02/08","12:11:22",18590.000,"cc",28336.094,1,0.100,16704.000,0.200,815.000,0.300,419.000,0.500,456.000,1.000,196.000,5.000,0
"03/02/08","12:11:28",18523.000,"cc",28274.551,1,0.100,16579.000,0.200,821.000,0.300,443.000,0.500,491.000,1.000,189.000,5.000,0
"03/02/08","12:11:34",18765.000,"cc",28278.461,1,0.100,16845.000,0.200,869.000,0.300,431.000,0.500,445.000,1.000,175.000,5.000,0
"03/02/08","12:11:40",18491.000,"cc",28327.828,1,0.100,16556.000,0.200,853.000,0.300,443.000,0.500,456.000,1.000,183.000,5.000,0
"03/02/08","12:11:46",18792.000,"cc",28343.387,1,0.100,16885.000,0.200,817.000,0.300,473.000,0.500,427.000,1.000,190.000,5.000,0
"03/02/08","12:11:52",18685.000,"cc",28327.440,1,0.100,16765.000,0.200,798.000,0.300,459.000,0.500,453.000,1.000,210.000,5.000,0
"03/02/08","12:11:58",18676.000,"cc",28303.744,1,0.100,16779.000,0.200,792.000,0.300,481.000,0.500,439.000,1.000,185.000,5.000,0
"03/02/08","12:12:04",18808.000,"cc",28308.746,1,0.100,16843.000,0.200,876.000,0.300,440.000,0.500,479.000,1.000,170.000,5.000,0
"03/02/08","12:12:10",18716.000,"cc",28355.775,1,0.100,16793.000,0.200,783.000,0.300,446.000,0.500,525.000,1.000,169.000,5.000,0
"03/02/08","12:12:16",18705.000,"cc",28348.422,1,0.100,16749.000,0.200,851.000,0.300,460.000,0.500,467.000,1.000,178.000,5.000,0
"03/02/08","12:12:22",18838.000,"cc",28288.857,1,0.100,16862.000,0.200,834.000,0.300,460.000,0.500,506.000,1.000,176.000,5.000,0
"03/02/08","12:12:28",18778.000,"cc",28310.516,1,0.100,16833.000,0.200,850.000,0.300,441.000,0.500,480.000,1.000,174.000,5.000,0
"03/02/08","12:12:34",18861.000,"cc",28300.625,1,0.100,16808.000,0.200,877.000,0.300,504.000,0.500,503.000,1.000,169.000,5.000,0
"03/02/08","12:12:40",18523.000,"cc",28334.697,1,0.100,16554.000,0.200,902.000,0.300,432.000,0.500,456.000,1.000,179.000,5.000,0
"03/02/08","12:12:46",18689.000,"cc",28347.930,1,0.100,16711.000,0.200,843.000,0.300,484.000,0.500,464.000,1.000,187.000,5.000,0
"03/02/08","12:12:52",18821.000,"cc",28335.551,1,0.100,16807.000,0.200,817.000,0.300,483.000,0.500,525.000,1.000,189.000,5.000,0
"03/02/08","12:12:58",18400.000,"cc",28291.500,1,0.100,16378.000,0.200,882.000,0.300,470.000,0.500,476.000,1.000,194.000,5.000,0
"03/02/08","12:13:04",18367.000,"cc",28341.664,1,0.100,16380.000,0.200,794.000,0.300,482.000,0.500,517.000,1.000,194.000,5.000,0
"03/02/08","12:13:10",18643.000,"cc",28300.836,1,0.100,16653.000,0.200,911.000,0.300,455.000,0.500,456.000,1.000,168.000,5.000,0
"03/02/08","12:13:16",18452.000,"cc",28322.846,1,0.100,16503.000,0.200,882.000,0.300,430.000,0.500,473.000,1.000,164.000,5.000,0
"03/02/08","12:13:22",18604.000,"cc",28281.932,1,0.100,16705.000,0.200,816.000,0.300,444.000,0.500,459.000,1.000,180.000,5.000,0
"03/02/08","12:13:28",18756.000,"cc",28299.918,1,0.100,16785.000,0.200,867.000,0.300,446.000,0.500,466.000,1.000,192.000,5.000,0
"03/02/08","12:13:34",18567.000,"cc",28349.486,1,0.100,16570.000,0.200,872.000,0.300,482.000,0.500,465.000,1.000,178.000,5.000,0
"03/02/08","12:13:40",19084.000,"cc",28384.102,1,0.100,17048.000,0.200,820.000,0.300,493.000,0.500,517.000,1.000,206.000,5.000,0
"03/02/08","12:13:46",18806.000,"cc",28279.188,1,0.100,16775.000,0.200,858.000,0.300,492.000,0.500,461.000,1.000,220.000,5.000,0
"03/02/08","12:13:52",18847.000,"cc",28286.875,1,0.100,16789.000,0.200,867.000,0.300,486.000,0.500,510.000,1.000,195.000,5.000,0
"03/02/08","12:13:58",18665.000,"cc",28320.281,1,0.100,16602.000,0.200,937.000,0.300,454.000,0.500,481.000,1.000,191.000,5.000,0
"03/02/08","12:14:04",18717.000,"cc",28254.447,1,0.100,16608.000,0.200,906.000,0.300,483.000,0.500,534.000,1.000,186.000,5.000,0
"03/02/08","12:14:10",18577.000,"cc",28367.113,1,0.100,16542.000,0.200,871.000,0.300,471.000,0.500,481.000,1.000,212.000,5.000,0
"03/02/08","12:14:16",18720.000,"cc",28341.879,1,0.100,16761.000,0.200,857.000,0.300,436.000,0.500,457.000,1.000,209.000,5.000,0
"03/02/08","12:14:22",18812.000,"cc",28333.258,1,0.100,16850.000,0.200,815.000,0.300,462.000,0.500,502.000,1.000,183.000,5.000,0
"03/02/08","12:14:28",18538.000,"cc",28342.520,1,0.100,16471.000,0.200,902.000,0.300,488.000,0.500,483.000,1.000,193.000,5.000,1.000
"03/02/08","12:14:34",18836.000,"cc",28323.414,1,0.100,16851.000,0.200,872.000,0.300,459.000,0.500,460.000,1.000,194.000,5.000,0
"03/02/08","12:14:40",18676.000,"cc",28266.928,1,0.100,16719.000,0.200,867.000,0.300,435.000,0.500,455.000,1.000,200.000,5.000,0
"03/02/08","12:14:46",18707.000,"cc",28306.820,1,0.100,16703.000,0.200,857.000,0.300,474.000,0.500,502.000,1.000,171.000,5.000,0
"03/02/08","12:14:52",18929.000,"cc",28342.158,1,0.100,16918.000,0.200,889.000,0.300,448.000,0.500,477.000,1.000,197.000,5.000,0
"03/02/08","12:14:58",18766.000,"cc",28342.213,1,0.100,16723.000,0.200,915.000,0.300,495.000,0.500,461.000,1.000,172.000,5.000,0
"03/02/08","12:15:04",18612.000,"cc",28336.539,1,0.100,16566.000,0.200,874.000,0.300,469.000,0.500,501.000,1.000,202.000,5.000,0
"03/02/08","12:15:10",18708.000,"cc",28241.723,1,0.100,16732.000,0.200,905.000,0.300,453.000,0.500,442.000,1.000,176.000,5.000,0
"03/02/08","12:15:16",18721.000,"cc",28350.965,1,0.100,16681.000,0.200,903.000,0.300,419.000,0.500,531.000,1.000,187.000,5.000,0
"03/02/08","12:15:22",18714.000,"cc",28266.158,1,0.100,16770.000,0.200,829.000,0.300,434.000,0.500,485.000,1.000,196.000,5.000,0
"03/02/08","12:15:28",18661.000,"cc",28386.088,1,0.100,16594.000,0.200,901.000,0.300,487.000,0.500,510.000,1.000,169.000,5.000,0
"03/02/08","12:15:34",18653.000,"cc",28305.918,1,0.100,16692.000,0.200,823.000,0.300,440.000,0.500,512.000,1.000,186.000,5.000,0
"03/02/08","12:15:40",18873.000,"cc",28269.131,1,0.100,16843.000,0.200,878.000,0.300,458.000,0.500,493.000,1.000,201.000,5.000,0
"03/02/08","12:15:46",18712.000,"cc",28345.215,1,0.100,16741.000,0.200,874.000,0.300,457.000,0.500,462.000,1.000,178.000,5.000,0
"03/02/08","12:15:52",18648.000,"cc",28234.238,1,0.100,16642.000,0.200,847.000,0.300,461.000,0.500,529.000,1.000,169.000,5.000,0
"03/02/08","12:15:58",18469.000,"cc",28349.324,1,0.100,16478.000,0.200,841.000,0.300,472.000,0.500,488.000,1.000,190.000,5.000,0
"03/02/08","12:16:04",19002.000,"cc",28300.934,1,0.100,16985.000,0.200,883.000,0.300,439.000,0.500,509.000,1.000,186.000,5.000,0
"03/02/08","12:16:10",18654.000,"cc",28371.324,1,0.100,16650.000,0.200,904.000,0.300,459.000,0.500,442.000,1.000,199.000,5.000,0
"03/02/08","12:16:16",18797.000,"cc",28323.035,1,0.100,16657.000,0.200,936.000,0.300,499.000,0.500,519.000,1.000,186.000,5.000,0
"03/02/08","12:16:22",18743.000,"cc",28291.719,1,0.100,16737.000,0.200,882.000,0.300,459.000,0.500,484.000,1.000,181.000,5.000,0
"03/02/08","12:16:28",18940.000,"cc",28247.549,1,0.100,16886.000,0.200,891.000,0.300,493.000,0.500,480.000,1.000,190.000,5.000,0
"03/02/08","12:16:34",18816.000,"cc",28350.141,1,0.100,16842.000,0.200,854.000,0.300,450.000,0.500,481.000,1.000,189.000,5.000,0
"03/02/08","12:16:40",18863.000,"cc",28288.520,1,0.100,16764.000,0.200,866.000,0.300,518.000,0.500,523.000,1.000,192.000,5.000,0
"03/02/08","12:16:46",18640.000,"cc",28329.459,1,0.100,16603.000,0.200,886.000,0.300,469.000,0.500,495.000,1.000,187.000,5.000,0
"03/02/08","12:16:52",18977.000,"cc",28332.617,1,0.100,16913.000,0.200,874.000,0.300,463.000,0.500,512.000,1.000,215.000,5.000,0
"03/02/08","12:16:58",18618.000,"cc",28334.842,1,0.100,16594.000,0.200,873.000,0.300,496.000,0.500,494.000,1.000,161.000,5.000,0
"03/02/08","12:17:04",18812.000,"cc",28330.459,1,0.100,16788.000,0.200,884.000,0.300,484.000,0.500,488.000,1.000,168.000,5.000,0
"03/02/08","12:17:10",18734.000,"cc",28309.539,1,0.100,16661.000,0.200,879.000,0.300,445.000,0.500,532.000,1.000,217.000,5.000,0
"03/02/08","12:17:16",18707.000,"cc",28390.518,1,0.100,16724.000,0.200,859.000,0.300,472.000,0.500,459.000,1.000,193.000,5.000,0
"03/02/08","12:17:22",18880.000,"cc",28300.457,1,0.100,16776.000,0.200,918.000,0.300,473.000,0.500,520.000,1.000,193.000,5.000,0